Time,TemperatureF,DewpointF,PressureIn,WindDirection,WindDirectionDegrees,WindSpeedMPH,WindSpeedGustMPH,Humidity,HourlyPrecipIn,Conditions,Clouds,dailyrainin,SoftwareType,DateUTC
2013-01-12 00:14:00,39.8,-99.9,30.20,East,93,0.0,-999.0,0,-99.99,,,0.00,weatherlink.com 1.10,2013-01-12 08:14:00,
2013-01-12 00:29:00,40.2,-99.9,30.20,NE,55,2.0,-999.0,0,-99.99,,,0.00,weatherlink.com 1.10,2013-01-12 08:29:00,
2013-01-12 00:44:00,40.0,-99.9,30.20,ENE,63,2.0,-999.0,-999,-99.99,,,0.00,weatherlink.com 1.10,2013-01-12 08:44:00,
2013-01-12 00:59:00,39.5,-99.9,30.20,NE,55,0.0,-999.0,0,-99.99,,,0.00,weatherlink.com 1.10,2013-01-12 08:59:00,
2013-01-12 01:14:00,40.4,-99.9,30.20,NE,55,2.0,-999.0,0,-99.99,,,0.00,weatherlink.com 1.10,2013-01-12 09:14:00,
2013-01-12 01:29:00,38.9,-55.0,30.21,ENE,57,5.0,-999.0,1,-99.99,,,0.00,weatherlink.com 1.10,2013-01-12 09:29:00,
2013-01-12 01:44:00,38.3,-99.9,30.21,NE,53,1.0,-999.0,0,-99.99,,,0.00,weatherlink.com 1.10,2013-01-12 09:44:00,
2013-01-12 01:59:00,38.0,-99.9,30.20,ENE,57,7.0,-999.0,0,-99.99,,,0.00,weatherlink.com 1.10,2013-01-12 09:59:00,
2013-01-12 02:14:00,36.4,-99.9,30.20,ENE,58,7.0,-999.0,0,-99.99,,,0.00,weatherlink.com 1.10,2013-01-12 10:14:00,
2013-01-12 02:29:00,36.8,-99.9,30.20,ENE,63,5.0,-999.0,0,-99.99,,,0.00,weatherlink.com 1.10,2013-01-12 10:29:00,
2013-01-12 02:44:00,37.3,-99.9,30.21,NE,50,2.0,-999.0,0,-99.99,,,0.00,weatherlink.com 1.10,2013-01-12 10:44:00,
2013-01-12 02:59:00,37.5,-99.9,30.20,ENE,58,6.0,-999.0,0,-99.99,,,0.00,weatherlink.com 1.10,2013-01-12 10:59:00,
2013-01-12 03:14:00,37.7,-99.9,30.20,ENE,57,4.0,-999.0,0,-99.99,,,0.00,weatherlink.com 1.10,2013-01-12 11:14:00,
2013-01-12 03:29:00,37.5,-99.9,30.20,NE,53,4.0,-999.0,0,-99.99,,,0.00,weatherlink.com 1.10,2013-01-12 11:29:00,
2013-01-12 03:44:00,37.3,-99.9,30.20,ENE,61,5.0,-999.0,0,-99.99,,,0.00,weatherlink.com 1.10,2013-01-12 11:44:00,
2013-01-12 03:59:00,36.1,-99.9,30.19,NE,46,6.0,-999.0,0,-99.99,,,0.00,weatherlink.com 1.10,2013-01-12 11:59:00,
2013-01-12 04:14:00,36.2,-99.9,30.19,NE,40,4.0,-999.0,0,-99.99,,,0.00,weatherlink.com 1.10,2013-01-12 12:14:00,
2013-01-12 04:29:00,37.0,-99.9,30.20,ENE,68,7.0,-999.0,0,-99.99,,,0.00,weatherlink.com 1.10,2013-01-12 12:29:00,
2013-01-12 04:44:00,36.3,-99.9,30.20,ENE,64,5.0,-999.0,0,-99.99,,,0.00,weatherlink.com 1.10,2013-01-12 12:44:00,
2013-01-12 04:59:00,34.8,-99.9,30.20,NE,46,3.0,-999.0,0,-99.99,,,0.00,weatherlink.com 1.10,2013-01-12 12:59:00,
2013-01-12 05:14:00,34.5,-99.9,30.20,NE,44,5.0,-999.0,0,-99.99,,,0.00,weatherlink.com 1.10,2013-01-12 13:14:00,
2013-01-12 05:29:00,34.4,-99.9,30.21,NE,46,3.0,-999.0,0,-99.99,,,0.00,weatherlink.com 1.10,2013-01-12 13:29:00,
2013-01-12 05:44:00,34.8,-99.9,30.21,NE,55,6.0,-999.0,0,-99.99,,,0.00,weatherlink.com 1.10,2013-01-12 13:44:00,
2013-01-12 05:59:00,34.0,-99.9,30.20,ENE,57,8.0,-999.0,0,-99.99,,,0.00,weatherlink.com 1.10,2013-01-12 13:59:00,
2013-01-12 06:14:00,33.7,-99.9,30.20,NE,52,6.0,-999.0,0,-99.99,,,0.00,weatherlink.com 1.10,2013-01-12 14:14:00,
2013-01-12 06:29:00,34.3,-99.9,30.21,NE,39,6.0,-999.0,0,-99.99,,,0.00,weatherlink.com 1.10,2013-01-12 14:29:00,
2013-01-12 06:44:00,33.7,-99.9,30.21,ENE,61,5.0,-999.0,0,-99.99,,,0.00,weatherlink.com 1.10,2013-01-12 14:44:00,
2013-01-12 06:59:00,33.2,-99.9,30.22,NE,54,5.0,-999.0,0,-99.99,,,0.00,weatherlink.com 1.10,2013-01-12 14:59:00,
2013-01-12 07:14:00,32.9,-99.9,30.23,NE,53,6.0,-999.0,0,-99.99,,,0.00,weatherlink.com 1.10,2013-01-12 15:14:00,
2013-01-12 07:29:00,33.1,-99.9,30.23,NE,51,5.0,-999.0,0,-99.99,,,0.00,weatherlink.com 1.10,2013-01-12 15:29:00,
2013-01-12 07:44:00,32.9,-99.9,30.23,NE,44,7.0,-999.0,0,-99.99,,,0.00,weatherlink.com 1.10,2013-01-12 15:44:00,
2013-01-12 07:59:00,33.0,-99.9,30.23,ENE,65,10.0,-999.0,0,-99.99,,,0.00,weatherlink.com 1.10,2013-01-12 15:59:00,
2013-01-12 08:14:00,33.5,-99.9,30.24,ENE,66,9.0,-999.0,0,-99.99,,,0.00,weatherlink.com 1.10,2013-01-12 16:14:00,
2013-01-12 08:29:00,33.8,-99.9,30.24,ENE,58,10.0,-999.0,0,-99.99,,,0.00,weatherlink.com 1.10,2013-01-12 16:29:00,
2013-01-12 08:44:00,34.3,-99.9,30.24,ENE,58,5.0,-999.0,0,-99.99,,,0.00,weatherlink.com 1.10,2013-01-12 16:44:00,
2013-01-12 08:59:00,35.1,-99.9,30.24,NNE,32,5.0,-999.0,0,-99.99,,,0.00,weatherlink.com 1.10,2013-01-12 16:59:00,
2013-01-12 09:14:00,36.2,-99.9,30.24,NE,54,6.0,-999.0,0,-99.99,,,0.00,weatherlink.com 1.10,2013-01-12 17:14:00,
2013-01-12 09:29:00,37.3,-99.9,30.24,ENE,61,4.0,-999.0,0,-99.99,,,0.00,weatherlink.com 1.10,2013-01-12 17:29:00,
2013-01-12 09:44:00,39.0,-99.9,30.24,ENE,59,4.0,-999.0,0,-99.99,,,0.00,weatherlink.com 1.10,2013-01-12 17:44:00,
2013-01-12 09:59:00,41.4,-99.9,30.24,ENE,64,0.0,-999.0,0,-99.99,,,0.00,weatherlink.com 1.10,2013-01-12 17:59:00,
2013-01-12 10:14:00,43.1,2.0,30.23,NE,55,0.0,-999.0,18,-99.99,,,0.00,weatherlink.com 1.10,2013-01-12 18:14:00,
2013-01-12 10:29:00,44.8,24.0,30.23,ENE,60,0.0,-999.0,44,-99.99,,,0.00,weatherlink.com 1.10,2013-01-12 18:29:00,
2013-01-12 10:44:00,46.6,28.0,30.23,ENE,74,0.0,-999.0,48,-99.99,,,0.00,weatherlink.com 1.10,2013-01-12 18:44:00,
2013-01-12 10:59:00,47.2,27.0,30.22,NE,51,0.0,-999.0,45,-99.99,,,0.00,weatherlink.com 1.10,2013-01-12 18:59:00,
2013-01-12 11:14:00,48.3,28.0,30.22,NNE,24,0.0,-999.0,46,-99.99,,,0.00,weatherlink.com 1.10,2013-01-12 19:14:00,
2013-01-12 11:29:00,51.3,30.0,30.21,West,260,2.0,-999.0,44,-99.99,,,0.00,weatherlink.com 1.10,2013-01-12 19:29:00,
2013-01-12 11:44:00,54.2,28.0,30.21,SW,235,5.0,-999.0,36,-99.99,,,0.00,weatherlink.com 1.10,2013-01-12 19:44:00,
2013-01-12 11:59:00,53.8,28.0,30.19,West,273,3.0,-999.0,37,-99.99,,,0.00,weatherlink.com 1.10,2013-01-12 19:59:00,
2013-01-12 12:14:00,54.2,29.0,30.18,SW,225,3.0,-999.0,38,-99.99,,,0.00,weatherlink.com 1.10,2013-01-12 20:14:00,
2013-01-12 12:29:00,53.2,29.0,30.17,SW,234,3.0,-999.0,40,-99.99,,,0.00,weatherlink.com 1.10,2013-01-12 20:29:00,
2013-01-12 12:44:00,54.5,30.0,30.17,WNW,282,4.0,-999.0,39,-99.99,,,0.00,weatherlink.com 1.10,2013-01-12 20:44:00,
2013-01-12 12:59:00,56.0,29.0,30.16,NW,316,3.0,-999.0,35,-99.99,,,0.00,weatherlink.com 1.10,2013-01-12 20:59:00,
2013-01-12 13:14:00,56.5,30.0,30.16,West,281,11.0,-999.0,37,-99.99,,,0.00,weatherlink.com 1.10,2013-01-12 21:14:00,
2013-01-12 13:29:00,55.7,30.0,30.15,West,273,5.0,-999.0,38,-99.99,,,0.00,weatherlink.com 1.10,2013-01-12 21:29:00,
2013-01-12 13:44:00,55.7,32.0,30.14,WSW,244,7.0,-999.0,41,-99.99,,,0.00,weatherlink.com 1.10,2013-01-12 21:44:00,
2013-01-12 13:59:00,55.2,32.0,30.14,NW,304,5.0,-999.0,41,-99.99,,,0.00,weatherlink.com 1.10,2013-01-12 21:59:00,
2013-01-12 14:14:00,54.2,32.0,30.14,West,269,10.0,-999.0,43,-99.99,,,0.00,weatherlink.com 1.10,2013-01-12 22:14:00,
2013-01-12 14:29:00,53.1,32.0,30.14,WNW,302,3.0,-999.0,45,-99.99,,,0.00,weatherlink.com 1.10,2013-01-12 22:29:00,
2013-01-12 14:44:00,52.7,32.0,30.14,NW,306,10.0,-999.0,46,-99.99,,,0.00,weatherlink.com 1.10,2013-01-12 22:44:00,
2013-01-12 14:59:00,52.3,32.0,30.14,NW,311,12.0,-999.0,46,-99.99,,,0.00,weatherlink.com 1.10,2013-01-12 22:59:00,
2013-01-12 15:14:00,51.9,31.0,30.14,WNW,288,15.0,-999.0,45,-99.99,,,0.00,weatherlink.com 1.10,2013-01-12 23:14:00,
2013-01-12 15:29:00,51.8,31.0,30.14,NE,45,0.0,-999.0,46,-99.99,,,0.00,weatherlink.com 1.10,2013-01-12 23:29:00,
2013-01-12 15:44:00,52.8,32.0,30.14,West,279,4.0,-999.0,46,-99.99,,,0.00,weatherlink.com 1.10,2013-01-12 23:44:00,
2013-01-12 15:59:00,53.1,33.0,30.13,WNW,286,0.0,-999.0,46,-99.99,,,0.00,weatherlink.com 1.10,2013-01-12 23:59:00,
2013-01-12 16:14:00,53.5,32.0,30.13,NW,306,1.0,-999.0,45,-99.99,,,0.00,weatherlink.com 1.10,2013-01-13 00:14:00,
2013-01-12 16:29:00,51.9,29.0,30.13,NNW,348,2.0,-999.0,42,-99.99,,,0.00,weatherlink.com 1.10,2013-01-13 00:29:00,
2013-01-12 16:44:00,50.5,30.0,30.13,NNW,336,0.0,-999.0,45,-99.99,,,0.00,weatherlink.com 1.10,2013-01-13 00:44:00,
2013-01-12 16:59:00,49.3,30.0,30.14,NNE,26,1.0,-999.0,47,-99.99,,,0.01,weatherlink.com 1.10,2013-01-13 00:59:00,
2013-01-12 17:14:00,47.7,28.0,30.14,North,9,0.0,-999.0,46,-99.99,,,0.01,weatherlink.com 1.10,2013-01-13 01:14:00,
2013-01-12 17:29:00,46.5,24.0,30.14,ENE,61,0.0,-999.0,42,-99.99,,,0.01,weatherlink.com 1.10,2013-01-13 01:29:00,
2013-01-12 17:44:00,45.9,21.0,30.14,NNE,26,0.0,-999.0,37,-99.99,,,0.01,weatherlink.com 1.10,2013-01-13 01:44:00,
2013-01-12 17:59:00,46.0,21.0,30.14,NNE,15,0.0,-999.0,38,-99.99,,,0.01,weatherlink.com 1.10,2013-01-13 01:59:00,
2013-01-12 18:14:00,45.9,20.0,30.14,ENE,63,1.0,-999.0,36,-99.99,,,0.01,weatherlink.com 1.10,2013-01-13 02:14:00,
2013-01-12 18:29:00,44.7,14.0,30.14,ENE,63,1.0,-999.0,29,-99.99,,,0.01,weatherlink.com 1.10,2013-01-13 02:29:00,
2013-01-12 18:44:00,44.5,12.0,30.14,NE,49,0.0,-999.0,27,-99.99,,,0.01,weatherlink.com 1.10,2013-01-13 02:44:00,
2013-01-12 18:59:00,43.9,8.0,30.15,NE,51,1.0,-999.0,23,-99.99,,,0.01,weatherlink.com 1.10,2013-01-13 02:59:00,
2013-01-12 19:14:00,43.0,4.0,30.15,NE,51,0.0,-999.0,20,-99.99,,,0.01,weatherlink.com 1.10,2013-01-13 03:14:00,
2013-01-12 19:29:00,41.9,4.0,30.15,NE,52,0.0,-999.0,21,-99.99,,,0.01,weatherlink.com 1.10,2013-01-13 03:29:00,
2013-01-12 19:44:00,41.7,-6.0,30.16,NE,53,2.0,-999.0,13,-99.99,,,0.01,weatherlink.com 1.10,2013-01-13 03:44:00,
2013-01-12 19:59:00,41.2,-6.0,30.16,NE,49,0.0,-999.0,13,-99.99,,,0.01,weatherlink.com 1.10,2013-01-13 03:59:00,
2013-01-12 20:14:00,41.1,-1.0,30.16,NE,52,3.0,-999.0,17,-99.99,,,0.01,weatherlink.com 1.10,2013-01-13 04:14:00,
2013-01-12 20:29:00,40.5,0.0,30.15,NE,56,5.0,-999.0,18,-99.99,,,0.01,weatherlink.com 1.10,2013-01-13 04:29:00,
2013-01-12 20:44:00,39.4,-43.0,30.15,NE,44,6.0,-999.0,2,-99.99,,,0.01,weatherlink.com 1.10,2013-01-13 04:44:00,
2013-01-12 20:59:00,38.9,-99.9,30.16,ENE,62,9.0,-999.0,0,-99.99,,,0.01,weatherlink.com 1.10,2013-01-13 04:59:00,
2013-01-12 21:14:00,38.4,-99.9,30.16,ENE,58,10.0,-999.0,0,-99.99,,,0.01,weatherlink.com 1.10,2013-01-13 05:14:00,
2013-01-12 21:29:00,37.7,-99.9,30.16,ENE,69,9.0,-999.0,0,-99.99,,,0.01,weatherlink.com 1.10,2013-01-13 05:29:00,
2013-01-12 21:44:00,37.2,-99.9,30.17,NE,55,9.0,-999.0,0,-99.99,,,0.01,weatherlink.com 1.10,2013-01-13 05:44:00,
2013-01-12 21:59:00,37.8,-99.9,30.17,ENE,61,4.0,-999.0,0,-99.99,,,0.01,weatherlink.com 1.10,2013-01-13 05:59:00,
2013-01-12 22:14:00,38.4,-99.9,30.17,NE,42,10.0,-999.0,0,-99.99,,,0.01,weatherlink.com 1.10,2013-01-13 06:14:00,
2013-01-12 22:29:00,38.8,-24.0,30.18,NE,37,7.0,-999.0,6,-99.99,,,0.01,weatherlink.com 1.10,2013-01-13 06:29:00,
2013-01-12 22:44:00,40.0,6.0,30.18,NE,39,9.0,-999.0,24,-99.99,,,0.01,weatherlink.com 1.10,2013-01-13 06:44:00,
2013-01-12 22:59:00,38.8,1.0,30.19,NE,52,5.0,-999.0,20,-99.99,,,0.01,weatherlink.com 1.10,2013-01-13 06:59:00,
2013-01-12 23:14:00,37.0,-28.0,30.18,NE,53,9.0,-999.0,5,-99.99,,,0.01,weatherlink.com 1.10,2013-01-13 07:14:00,
2013-01-12 23:29:00,36.4,-99.9,30.19,ENE,60,13.0,-999.0,-999,-99.99,,,0.01,weatherlink.com 1.10,2013-01-13 07:29:00,
2013-01-12 23:44:00,35.6,-99.9,30.19,ENE,58,7.0,-999.0,0,-99.99,,,0.01,weatherlink.com 1.10,2013-01-13 07:44:00,
2013-01-12 23:59:00,35.8,-99.9,30.19,NE,56,13.0,-999.0,0,-99.99,,,0.01,weatherlink.com 1.10,2013-01-13 07:59:00,